Location: Rounton
(54.4000°N, 1.3500°W)
Time: 22:20:07
(UTC+00:00)

deb Explorer IX - Pass Details

Date: 17 December 2021
Orbit: 544 x 1082 km, 38.8° (Epoch: 27 January)

Event Time Altitude Azimuth Distance (km) Brightness Sun altitude
Exits shadow 04:48:18 - 189° (S) 2,894 ? -29.4°
Reaches altitude 10° 04:49:01 10° 183° (S) 2,768 ? -29.2°
Maximum altitude 04:51:43 13° 160° (SSE) 2,510 ? -28.9°
Drops below altitude 10° 04:54:19 10° 135° (SE) 2,636 ? -28.5°
Sets 04:58:24 0° 108° (ESE) 3,450 ? -27.9°
